Total_Precipitation_Accumulation
1.48 1.57 1.55 1.59 1.55 1.56 1.58 1.55 1.51 1.48 1.41 1.38 1.37 1.37 1.37 1.44 1.53 1.60 1.51 1.54 1.50 1.50 1.50 1.55 1.56 1.68 1.71 1.68 1.78 1.82 1.91 2.03 1.83 1.49 1.53 1.64 1.62 1.46 1.43 1.39 1.37 1.38 1.33
1.39 1.38 1.39 1.47 1.47 1.42 1.39 1.44 1.48 1.41 1.34 1.38 1.42 1.37 1.28 1.35 1.49 1.51 1.44 1.50 1.53 1.49 1.57 1.72 1.65 1.70 1.77 1.85 1.99 1.91 1.97 2.22 2.17 1.88 1.83 1.90 1.76 1.66 1.62 1.54 1.35 1.27 1.26
1.20 1.19 1.22 1.26 1.25 1.24 1.26 1.33 1.42 1.44 1.44 1.40 1.35 1.28 1.27 1.31 1.37 1.40 1.49 1.61 1.65 1.68 1.76 1.84 1.87 2.03 1.94 1.98 2.03 1.99 2.05 2.28 2.47 2.27 2.09 2.17 2.10 1.88 1.80 1.62 1.49 1.49 1.29
1.11 1.18 1.29 1.33 1.35 1.35 1.35 1.43 1.52 1.58 1.53 1.53 1.50 1.52 1.53 1.48 1.46 1.52 1.63 1.71 1.73 1.79 1.93 1.96 1.97 2.03 2.08 2.19 2.20 2.27 2.43 2.61 2.75 2.61 2.48 2.55 2.55 2.37 2.15 1.82 1.70 1.60 1.47
1.27 1.37 1.55 1.69 1.69 1.58 1.59 1.69 1.76 1.80 1.75 1.87 1.84 1.81 1.85 1.79 1.62 1.72 1.79 1.77 1.88 1.82 1.90 1.95 1.91 2.00 2.06 2.16 2.13 2.31 2.60 2.78 2.91 2.92 2.86 3.00 2.94 2.79 2.44 2.08 1.97 1.86 1.71
1.12 1.25 1.45 1.64 1.73 1.75 1.81 1.91 1.93 1.90 2.00 2.06 1.99 1.98 1.97 1.75 1.86 1.92 1.89 1.95 2.01 1.97 1.97 1.99 1.96 1.93 1.86 1.90 1.98 2.09 2.26 2.46 2.68 2.87 2.94 3.01 3.04 2.93 2.72 2.46 2.13 1.87 1.71
1.32 1.50 1.60 1.77 1.89 1.92 1.88 1.91 1.94 1.95 1.93 1.99 2.01 2.03 1.92 1.87 1.88 1.75 1.76 1.77 1.88 1.95 1.97 1.98 1.81 1.69 1.71 1.63 1.77 1.83 1.82 1.88 2.01 2.28 2.49 2.53 2.74 2.86 2.77 2.42 2.10 1.85 1.66
1.29 1.45 1.58 1.75 1.88 1.95 2.04 2.09 2.15 2.19 2.19 2.19 2.12 2.09 2.06 1.93 1.84 1.70 1.74 1.62 1.67 1.71 1.75 1.78 1.77 1.68 1.66 1.74 1.74 1.62 1.48 1.47 1.58 1.60 1.71 1.96 2.23 2.56 2.65 2.52 2.45 2.16 1.86
1.51 1.67 1.81 1.89 2.03 2.09 2.13 2.25 2.34 2.39 2.35 2.32 2.29 2.31 2.32 2.31 2.22 1.93 1.82 1.67 1.71 1.70 1.70 1.70 1.70 1.57 1.66 1.62 1.57 1.57 1.48 1.40 1.43 1.47 1.53 1.73 2.00 2.24 2.45 2.48 2.37 2.27 2.00
1.89 1.93 2.00 2.12 2.19 2.17 2.17 2.23 2.24 2.25 2.26 2.26 2.21 2.26 2.24 2.27 2.34 2.03 1.80 1.60 1.64 1.68 1.76 1.77 1.79 1.63 1.68 1.63 1.59 1.63 1.54 1.46 1.46 1.44 1.47 1.53 1.60 1.89 2.18 2.19 2.15 2.17 2.01
1.89 1.96 2.05 2.14 2.32 2.40 2.41 2.27 2.12 2.09 2.13 2.21 2.21 2.26 2.27 2.23 2.19 1.83 1.68 1.61 1.67 1.71 1.67 1.63 1.66 1.68 1.52 1.43 1.38 1.38 1.45 1.47 1.48 1.43 1.37 1.38 1.44 1.56 1.76 1.86 1.93 1.92 1.83
1.84 1.94 2.03 2.07 2.09 2.13 2.34 2.39 2.29 2.19 2.12 2.14 2.20 2.17 2.10 2.06 1.94 1.63 1.37 1.35 1.43 1.47 1.48 1.46 1.46 1.42 1.24 1.13 1.01 0.99 1.06 1.06 1.13 1.22 1.23 1.20 1.23 1.30 1.46 1.71 1.87 1.89 1.77
1.90 2.04 2.16 2.16 2.19 2.17 2.18 2.23 2.19 2.11 1.96 1.81 1.87 1.92 1.93 1.93 1.81 1.54 1.26 1.16 1.18 1.14 1.23 1.43 1.43 1.29 1.18 1.10 1.05 0.97 0.89 0.82 0.90 1.00 0.97 0.98 1.03 1.14 1.30 1.60 1.85 2.03 1.93
2.02 2.06 2.08 2.08 2.06 2.12 2.23 2.15 2.07 2.07 2.00 1.82 1.83 1.90 1.94 1.93 1.81 1.60 1.44 1.33 1.28 1.22 1.24 1.39 1.45 1.42 1.34 1.25 1.15 0.98 0.82 0.80 0.83 0.88 0.93 0.95 1.05 1.15 1.26 1.36 1.61 1.82 1.92
1.85 1.77 1.81 1.86 1.86 1.86 2.01 2.07 1.89 1.82 1.89 1.84 1.92 2.10 2.05 1.87 1.73 1.57 1.39 1.36 1.35 1.39 1.40 1.49 1.60 1.62 1.58 1.46 1.30 1.14 1.01 0.96 0.93 0.92 1.00 1.02 1.05 1.08 1.10 1.16 1.35 1.52 1.53
1.86 1.79 1.72 1.71 1.73 1.77 1.78 1.82 1.80 1.58 1.57 1.53 1.58 1.69 1.75 1.65 1.55 1.47 1.36 1.31 1.24 1.24 1.26 1.40 1.67 1.74 1.74 1.71 1.58 1.39 1.24 1.13 1.08 1.06 1.07 1.07 1.07 1.12 1.16 1.21 1.29 1.41 1.41
1.91 1.96 1.86 1.64 1.55 1.55 1.56 1.55 1.58 1.51 1.30 1.23 1.23 1.21 1.19 1.20 1.22 1.29 1.31 1.23 1.16 1.06 1.00 1.17 1.46 1.68 1.76 1.78 1.70 1.49 1.30 1.25 1.27 1.22 1.17 1.14 1.14 1.16 1.24 1.28 1.31 1.39 1.44
1.61 1.68 1.63 1.55 1.48 1.40 1.36 1.33 1.29 1.38 1.38 1.25 1.17 1.12 1.08 1.05 1.08 1.26 1.37 1.19 1.04 0.97 0.91 1.07 1.33 1.57 1.68 1.73 1.69 1.60 1.46 1.41 1.39 1.34 1.29 1.25 1.24 1.26 1.25 1.27 1.31 1.34 1.38
1.45 1.48 1.45 1.46 1.50 1.49 1.50 1.45 1.35 1.37 1.47 1.49 1.38 1.17 1.12 1.10 1.13 1.36 1.45 1.14 1.03 1.07 1.07 1.10 1.23 1.43 1.60 1.70 1.71 1.68 1.61 1.55 1.51 1.51 1.45 1.40 1.38 1.42 1.38 1.29 1.31 1.40 1.42
1.39 1.53 1.50 1.41 1.42 1.53 1.58 1.50 1.50 1.61 1.63 1.73 1.72 1.43 1.23 1.15 1.11 1.36 1.46 1.30 1.25 1.25 1.22 1.20 1.24 1.38 1.55 1.69 1.72 1.69 1.72 1.67 1.64 1.61 1.56 1.51 1.47 1.48 1.47 1.43 1.44 1.47 1.41
1.32 1.39 1.46 1.41 1.42 1.48 1.52 1.53 1.51 1.58 1.69 1.75 1.71 1.49 1.33 1.20 1.29 1.52 1.68 1.55 1.43 1.41 1.38 1.34 1.34 1.44 1.53 1.63 1.63 1.58 1.59 1.66 1.64 1.59 1.55 1.52 1.48 1.45 1.45 1.49 1.48 1.52 1.50
1.27 1.31 1.34 1.35 1.38 1.39 1.40 1.49 1.56 1.63 1.70 1.75 1.64 1.49 1.45 1.37 1.43 1.58 1.63 1.56 1.49 1.44 1.40 1.38 1.43 1.51 1.55 1.57 1.57 1.57 1.58 1.61 1.60 1.57 1.58 1.57 1.55 1.52 1.53 1.52 1.51 1.54 1.56
1.13 1.18 1.23 1.25 1.25 1.22 1.22 1.25 1.27 1.36 1.48 1.54 1.47 1.42 1.42 1.47 1.47 1.51 1.57 1.53 1.48 1.45 1.38 1.38 1.39 1.39 1.40 1.40 1.36 1.40 1.44 1.45 1.46 1.50 1.58 1.62 1.62 1.59 1.56 1.52 1.49 1.53 1.57
0.82 0.83 0.85 0.89 0.91 0.97 1.01 1.04 1.03 1.07 1.20 1.27 1.21 1.25 1.28 1.31 1.30 1.34 1.39 1.40 1.41 1.41 1.38 1.33 1.30 1.28 1.24 1.23 1.23 1.24 1.23 1.26 1.27 1.33 1.40 1.49 1.53 1.58 1.58 1.55 1.55 1.57 1.60
0.75 0.75 0.75 0.78 0.79 0.83 0.87 0.91 0.99 1.05 1.10 1.12 1.15 1.16 1.19 1.18 1.21 1.25 1.24 1.23 1.23 1.22 1.17 1.17 1.19 1.19 1.21 1.14 1.07 1.03 1.08 1.08 1.09 1.15 1.19 1.30 1.38 1.45 1.49 1.50 1.55 1.61 1.61
0.71 0.77 0.79 0.82 0.85 0.87 0.91 0.96 1.00 0.99 0.99 1.01 1.04 1.08 1.15 1.14 1.12 1.11 1.07 1.06 1.09 1.08 1.05 1.05 1.05 1.08 1.08 1.04 1.00 1.01 0.97 0.89 0.92 1.04 1.05 1.12 1.25 1.33 1.37 1.41 1.41 1.48 1.52